Other Surface Observations
Issued by NWS Charleston, SC

Home | Current Version | Previous Version | Text Only | Print | Product List | Glossary On
Versions: 1 2 3 4 5 6 7 8 9 10 11 12 13 14 15 16 17 18 19 20 21 22 23 24 25 26 27 28 29 30 31 32 33 34 35 36 37 38 39 40 41 42 43 44 45 46 47 48 49 50
000
SXUS52 KCHS 261827
OSOCHS

MARINE OBSERVATIONS
NATIONAL WEATHER SERVICE CHARLESTON SC
200 PM EDT WED APR 26 2017

...DOWNTOWN CHARLESTON AND HARBOR...

CITY           SKY/WX    TMP DP  RH WIND       PRES   REMARKS
WATERFRONT PRK   N/A     77  67  71 S14       29.83F

...LAKE MOULTRIE...

CITY           SKY/WX    TMP DP  RH WIND       PRES   REMARKS
PINOPOLIS        N/A     79  64  61 SW5       29.77F

...LAKE AND SUPPLEMENTAL COASTAL OBSERVATIONS...

STATION/POSITION TIME  TEMP    WIND        PRES    WAVE   SWELL
                       AIR SEA DIR/SP/G            HT/PER HT/PER/DIR
                 (UTC) (F)     (DEG/KT/KT) (MB)    (FT/S) (FT/S/D)
FORT PULASKI     1800   77 74  170/  9/ 14 1011.4
SAPELO ISLAND    1800   82     140/  7     1011.0
WINYAH BAY       1730   73     120/  8     1011.0S
LAKE MURRAY      1820   78     240/  6/  9 1008.8F
ACE BASIN NERRS  1730   79     170/  2     1011.0F


...C-MAN AND BUOY OBSERVATIONS...

STATION/POSITION TIME  TEMP    WIND        PRES    WAVE   SWELL
                       AIR SEA DIR/SP/G            HT/PER HT/PER/DIR
                 (UTC) (F)     (DEG/KT/KT) (MB)    (FT/S) (FT/S/D)
BUOY 41004       1810   72 73  240/ 12/ 14 1011.5
BUOY 41008       1750   71 74  160/  8/ 10 1011.8F   2/ 9   2/100/ 9
FOLLY BEACH CMAN 1800   73     200/ 14/ 17 1011.8F
CAPERS NS BUOY   1808   74 73  220/ 14/ 19 1010.7F
FRIPP NS BUOY    1808   72 74  200/ 10/ 14 1011.2F
5E ST. MARYS GA  1800      75                N/A     2/10   2/110/11


STATION/POSITION TIME  TEMP    WIND        PRES    WAVE   SWELL
                       AIR SEA DIR/SP/G            HT/PER HT/PER/DIR
                 (UTC) (F)     (DEG/KT/KT) (MB)    (FT/S) (FT/S/D)
FRYING PAN BUOY  1810   72 74  190/  4/  6 1011.1
BUOY 41025       1750   68 76  260/ 10/ 14 1010.1F   6/10   5/130/10
CAPE LOOKOUT NC  1800   69     220/ 10/ 15 1010.2F
BUOY 41002       1750   74 75  240/ 16/ 19 1012.9S   7/ 8   3/120/ 8
BUOY 41010       1810   76 78  220/ 12/ 14 1012.9
ST AUGUSTINE FL  1800   72 75  120/ 11/ 13 1012.6F

$$




USA.gov is the U.S. government's official web portal to all federal, state and local government web resources and services.